Year,Month,Day,Hour,Minute,Value (Times are PST for temperature in C)
2011,10,31,00,00,8.50
2011,10,31,00,01,8.50
2011,10,31,00,02,8.50
2011,10,31,00,03,8.50
2011,10,31,00,04,8.40
2011,10,31,00,05,8.40
2011,10,31,00,06,8.40
2011,10,31,00,07,8.40
2011,10,31,00,08,8.30
2011,10,31,00,09,8.30
2011,10,31,00,10,8.30
2011,10,31,00,11,8.30
2011,10,31,00,12,8.30
2011,10,31,00,13,8.30
2011,10,31,00,14,8.30
2011,10,31,00,15,8.50
2011,10,31,00,16,8.60
2011,10,31,00,17,8.60
2011,10,31,00,18,8.50
2011,10,31,00,19,8.40
2011,10,31,00,20,8.40
2011,10,31,00,21,8.30
2011,10,31,00,22,8.30
2011,10,31,00,23,8.20
2011,10,31,00,24,8.20
2011,10,31,00,25,8.20
2011,10,31,00,26,8.20
2011,10,31,00,27,8.20
2011,10,31,00,28,8.20
2011,10,31,00,29,8.20
2011,10,31,00,30,8.20
2011,10,31,00,31,8.10
2011,10,31,00,32,8.10
2011,10,31,00,33,8.10
2011,10,31,00,34,8.10
2011,10,31,00,35,8.10
2011,10,31,00,36,8.10
2011,10,31,00,37,8.10
2011,10,31,00,38,8.10
2011,10,31,00,39,8.10
2011,10,31,00,40,8.20
2011,10,31,00,41,8.20
2011,10,31,00,42,8.20
2011,10,31,00,43,8.20
2011,10,31,00,44,8.20
2011,10,31,00,45,8.10
2011,10,31,00,46,8.10
2011,10,31,00,47,8.10
2011,10,31,00,48,8.10
2011,10,31,00,49,8.10
2011,10,31,00,50,8.10
2011,10,31,00,51,8.10
2011,10,31,00,52,8.10
2011,10,31,00,53,8.10
2011,10,31,00,54,8.10
2011,10,31,00,55,8.10
2011,10,31,00,56,8.10
2011,10,31,00,57,8.10
2011,10,31,00,58,8.10
2011,10,31,00,59,8.20
2011,10,31,01,00,8.20
2011,10,31,01,01,8.10
2011,10,31,01,02,8.10
2011,10,31,01,03,8.00
2011,10,31,01,04,8.00
2011,10,31,01,05,7.90
2011,10,31,01,06,7.90
2011,10,31,01,07,7.90
2011,10,31,01,08,7.90
2011,10,31,01,09,7.80
2011,10,31,01,10,7.80
2011,10,31,01,11,7.80
2011,10,31,01,12,7.80
2011,10,31,01,13,7.70
2011,10,31,01,14,7.70
2011,10,31,01,15,7.60
2011,10,31,01,16,7.60
2011,10,31,01,17,7.50
2011,10,31,01,18,7.50
2011,10,31,01,19,7.40
2011,10,31,01,20,7.40
2011,10,31,01,21,7.40
2011,10,31,01,22,7.30
2011,10,31,01,23,7.30
2011,10,31,01,24,7.20
2011,10,31,01,25,7.20
2011,10,31,01,26,7.10
2011,10,31,01,27,7.10
2011,10,31,01,28,7.00
2011,10,31,01,29,6.90
2011,10,31,01,30,6.80
2011,10,31,01,31,6.80
2011,10,31,01,32,6.70
2011,10,31,01,33,6.70
2011,10,31,01,34,6.70
2011,10,31,01,35,6.70
2011,10,31,01,36,6.70
2011,10,31,01,37,6.70
2011,10,31,01,38,6.80
2011,10,31,01,39,6.80
2011,10,31,01,40,6.80
2011,10,31,01,41,6.80
2011,10,31,01,42,6.80
2011,10,31,01,43,6.90
2011,10,31,01,44,6.90
2011,10,31,01,45,6.90
2011,10,31,01,46,6.80
2011,10,31,01,47,6.80
2011,10,31,01,48,6.70
2011,10,31,01,49,6.60
2011,10,31,01,50,6.50
2011,10,31,01,51,6.40
2011,10,31,01,52,6.30
2011,10,31,01,53,6.30
2011,10,31,01,54,6.20
2011,10,31,01,55,6.10
2011,10,31,01,56,6.10
2011,10,31,01,57,6.10
2011,10,31,01,58,6.10
2011,10,31,01,59,6.00
2011,10,31,02,00,6.00
2011,10,31,02,01,5.90
2011,10,31,02,02,5.80
2011,10,31,02,03,5.80
2011,10,31,02,04,5.70
2011,10,31,02,05,5.70
2011,10,31,02,06,5.60
2011,10,31,02,07,5.60
2011,10,31,02,08,5.50
2011,10,31,02,09,5.40
2011,10,31,02,10,5.40
2011,10,31,02,11,5.40
2011,10,31,02,12,5.50
2011,10,31,02,13,5.50
2011,10,31,02,14,5.50
2011,10,31,02,15,5.60
2011,10,31,02,16,5.70
2011,10,31,02,17,5.70
2011,10,31,02,18,5.80
2011,10,31,02,19,5.90
2011,10,31,02,20,6.00
2011,10,31,02,21,6.00
2011,10,31,02,22,6.00
2011,10,31,02,23,6.00
2011,10,31,02,24,6.10
2011,10,31,02,25,6.20
2011,10,31,02,26,6.20
2011,10,31,02,27,6.20
2011,10,31,02,28,6.10
2011,10,31,02,29,6.10
2011,10,31,02,30,6.10
2011,10,31,02,31,6.10
2011,10,31,02,32,6.20
2011,10,31,02,33,6.30
2011,10,31,02,34,6.40
2011,10,31,02,35,6.40
2011,10,31,02,36,6.50
2011,10,31,02,37,6.60
2011,10,31,02,38,6.60
2011,10,31,02,39,6.70
2011,10,31,02,40,6.70
2011,10,31,02,41,6.70
2011,10,31,02,42,6.70
2011,10,31,02,43,6.70
2011,10,31,02,44,6.80
2011,10,31,02,45,6.90
2011,10,31,02,46,7.00
2011,10,31,02,47,7.10
2011,10,31,02,48,7.20
2011,10,31,02,49,7.30
2011,10,31,02,50,7.40
2011,10,31,02,51,7.40
2011,10,31,02,52,7.40
2011,10,31,02,53,7.40
2011,10,31,02,54,7.40
2011,10,31,02,55,7.40
2011,10,31,02,56,7.40
2011,10,31,02,57,7.40
2011,10,31,02,58,7.40
2011,10,31,02,59,7.40
2011,10,31,03,00,7.40
2011,10,31,03,01,7.30
2011,10,31,03,02,7.30
2011,10,31,03,03,7.40
2011,10,31,03,04,7.40
2011,10,31,03,05,7.40
2011,10,31,03,06,7.30
2011,10,31,03,07,7.30
2011,10,31,03,08,7.30
2011,10,31,03,09,7.20
2011,10,31,03,10,7.20
2011,10,31,03,11,7.20
2011,10,31,03,12,7.20
2011,10,31,03,13,7.20
2011,10,31,03,14,7.20
2011,10,31,03,15,7.20
2011,10,31,03,16,7.20
2011,10,31,03,17,7.20
2011,10,31,03,18,7.10
2011,10,31,03,19,7.10
2011,10,31,03,20,7.00
2011,10,31,03,21,7.00
2011,10,31,03,22,6.90
2011,10,31,03,23,6.90
2011,10,31,03,24,6.90
2011,10,31,03,25,6.90
2011,10,31,03,26,6.90
2011,10,31,03,27,6.90
2011,10,31,03,28,6.80
2011,10,31,03,29,6.80
2011,10,31,03,30,6.80
2011,10,31,03,31,6.70
2011,10,31,03,32,6.70
2011,10,31,03,33,6.70
2011,10,31,03,34,6.70
2011,10,31,03,35,6.70
2011,10,31,03,36,6.70
2011,10,31,03,37,6.70
2011,10,31,03,38,6.70
2011,10,31,03,39,6.70
2011,10,31,03,40,6.70
2011,10,31,03,41,6.70
2011,10,31,03,42,6.70
2011,10,31,03,43,6.70
2011,10,31,03,44,6.70
2011,10,31,03,45,6.70
2011,10,31,03,46,6.70
2011,10,31,03,47,6.70
2011,10,31,03,48,6.80
2011,10,31,03,49,6.90
2011,10,31,03,50,7.00
2011,10,31,03,51,7.10
2011,10,31,03,52,7.10
2011,10,31,03,53,7.20
2011,10,31,03,54,7.20
2011,10,31,03,55,7.10
2011,10,31,03,56,7.00
2011,10,31,03,57,6.90
2011,10,31,03,58,6.80
2011,10,31,03,59,6.90
2011,10,31,04,00,6.90
2011,10,31,04,01,6.90
2011,10,31,04,02,6.80
2011,10,31,04,03,6.80
2011,10,31,04,04,6.70
2011,10,31,04,05,6.70
2011,10,31,04,06,6.60
2011,10,31,04,07,6.50
2011,10,31,04,08,6.40
2011,10,31,04,09,6.40
2011,10,31,04,10,6.40
2011,10,31,04,11,6.30
2011,10,31,04,12,6.30
2011,10,31,04,13,6.30
2011,10,31,04,14,6.30
2011,10,31,04,15,6.30
2011,10,31,04,16,6.30
2011,10,31,04,17,6.30
2011,10,31,04,18,6.40
2011,10,31,04,19,6.40
2011,10,31,04,20,6.40
2011,10,31,04,21,6.40
2011,10,31,04,22,6.40
2011,10,31,04,23,6.50
2011,10,31,04,24,6.50
2011,10,31,04,25,6.50
2011,10,31,04,26,6.60
2011,10,31,04,27,6.70
2011,10,31,04,28,6.70
2011,10,31,04,29,6.80
2011,10,31,04,30,6.80
2011,10,31,04,31,6.80
2011,10,31,04,32,6.80
2011,10,31,04,33,6.80
2011,10,31,04,34,6.80
2011,10,31,04,35,6.80
2011,10,31,04,36,6.80
2011,10,31,04,37,6.80
2011,10,31,04,38,6.80
2011,10,31,04,39,6.80
2011,10,31,04,40,6.80
2011,10,31,04,41,6.80
2011,10,31,04,42,6.80
2011,10,31,04,43,6.80
2011,10,31,04,44,6.80
2011,10,31,04,45,6.80
2011,10,31,04,46,6.80
2011,10,31,04,47,6.80
2011,10,31,04,48,6.80
2011,10,31,04,49,6.90
2011,10,31,04,50,6.90
2011,10,31,04,51,6.90
2011,10,31,04,52,6.90
2011,10,31,04,53,6.90
2011,10,31,04,54,6.90
2011,10,31,04,55,6.80
2011,10,31,04,56,6.80
2011,10,31,04,57,6.80
2011,10,31,04,58,6.80
2011,10,31,04,59,6.60
2011,10,31,05,00,6.20
2011,10,31,05,01,6.10
2011,10,31,05,02,6.00
2011,10,31,05,03,5.80
2011,10,31,05,04,5.70
2011,10,31,05,05,5.60
2011,10,31,05,06,5.40
2011,10,31,05,07,5.30
2011,10,31,05,08,5.10
2011,10,31,05,09,5.00
2011,10,31,05,10,4.90
2011,10,31,05,11,4.90
2011,10,31,05,12,4.80
2011,10,31,05,13,4.80
2011,10,31,05,14,4.80
2011,10,31,05,15,4.70
2011,10,31,05,16,4.70
2011,10,31,05,17,4.70
2011,10,31,05,18,4.70
2011,10,31,05,19,4.70
2011,10,31,05,20,4.80
2011,10,31,05,21,4.80
2011,10,31,05,22,4.90
2011,10,31,05,23,5.00
2011,10,31,05,24,5.10
2011,10,31,05,25,5.30
2011,10,31,05,26,5.50
2011,10,31,05,27,5.70
2011,10,31,05,28,5.90
2011,10,31,05,29,6.00
2011,10,31,05,30,6.00
2011,10,31,05,31,6.10
2011,10,31,05,32,6.10
2011,10,31,05,33,6.10
2011,10,31,05,34,6.10
2011,10,31,05,35,6.10
2011,10,31,05,36,6.10
2011,10,31,05,37,6.10
2011,10,31,05,38,6.00
2011,10,31,05,39,6.00
2011,10,31,05,40,6.00
2011,10,31,05,41,6.00
2011,10,31,05,42,6.00
2011,10,31,05,43,6.00
2011,10,31,05,44,6.00
2011,10,31,05,45,6.00
2011,10,31,05,46,6.00
2011,10,31,05,47,6.00
2011,10,31,05,48,6.00
2011,10,31,05,49,6.00
2011,10,31,05,50,5.90
2011,10,31,05,51,5.80
2011,10,31,05,52,5.70
2011,10,31,05,53,5.60
2011,10,31,05,54,5.50
2011,10,31,05,55,5.40
2011,10,31,05,56,5.30
2011,10,31,05,57,5.30
2011,10,31,05,58,5.30
2011,10,31,05,59,5.20
2011,10,31,06,00,5.20
2011,10,31,06,01,5.10
2011,10,31,06,02,5.00
2011,10,31,06,03,4.90
2011,10,31,06,04,4.90
2011,10,31,06,05,4.80
2011,10,31,06,06,4.80
2011,10,31,06,07,4.70
2011,10,31,06,08,4.70
2011,10,31,06,09,4.70
2011,10,31,06,10,4.70
2011,10,31,06,11,4.60
2011,10,31,06,12,4.60
2011,10,31,06,13,4.60
2011,10,31,06,14,4.50
2011,10,31,06,15,4.50
2011,10,31,06,16,4.40
2011,10,31,06,17,4.40
2011,10,31,06,18,4.40
2011,10,31,06,19,4.30
2011,10,31,06,20,4.30
2011,10,31,06,21,4.40
2011,10,31,06,22,4.40
2011,10,31,06,23,4.50
2011,10,31,06,24,4.50
2011,10,31,06,25,4.50
2011,10,31,06,26,4.40
2011,10,31,06,27,4.40
2011,10,31,06,28,4.30
2011,10,31,06,29,4.30
2011,10,31,06,30,4.20
2011,10,31,06,31,4.20
2011,10,31,06,32,4.30
2011,10,31,06,33,4.30
2011,10,31,06,34,4.30
2011,10,31,06,35,4.30
2011,10,31,06,36,4.20
2011,10,31,06,37,4.10
2011,10,31,06,38,4.00
2011,10,31,06,39,3.90
2011,10,31,06,40,3.80
2011,10,31,06,41,3.70
2011,10,31,06,42,3.70
2011,10,31,06,43,3.70
2011,10,31,06,44,3.70
2011,10,31,06,45,3.70
2011,10,31,06,46,3.60
2011,10,31,06,47,3.60
2011,10,31,06,48,3.60
2011,10,31,06,49,3.50
2011,10,31,06,50,3.40
2011,10,31,06,51,3.30
2011,10,31,06,52,3.30
2011,10,31,06,53,3.20
2011,10,31,06,54,3.20
2011,10,31,06,55,3.10
2011,10,31,06,56,3.10
2011,10,31,06,57,3.00
2011,10,31,06,58,3.00
2011,10,31,06,59,2.90
2011,10,31,07,00,2.90
2011,10,31,07,01,2.90
2011,10,31,07,02,2.90
2011,10,31,07,03,2.80
2011,10,31,07,04,2.80
2011,10,31,07,05,2.80
2011,10,31,07,06,2.80
2011,10,31,07,07,2.80
2011,10,31,07,08,2.90
2011,10,31,07,09,2.90
2011,10,31,07,10,2.90
2011,10,31,07,11,2.90
2011,10,31,07,12,2.90
2011,10,31,07,13,2.80
2011,10,31,07,14,2.80
2011,10,31,07,15,2.70
2011,10,31,07,16,2.60
2011,10,31,07,17,2.60
2011,10,31,07,18,2.60
2011,10,31,07,19,2.60
2011,10,31,07,20,2.50
2011,10,31,07,21,2.50
2011,10,31,07,22,2.40
2011,10,31,07,23,2.30
2011,10,31,07,24,2.30
2011,10,31,07,25,2.30
2011,10,31,07,26,2.30
2011,10,31,07,27,2.30
2011,10,31,07,28,2.20
2011,10,31,07,29,2.20
2011,10,31,07,30,2.20
2011,10,31,07,31,2.20
2011,10,31,07,32,2.20
2011,10,31,07,33,2.20
2011,10,31,07,34,2.20
2011,10,31,07,35,2.20
2011,10,31,07,36,2.20
2011,10,31,07,37,2.20
2011,10,31,07,38,2.20
2011,10,31,07,39,2.20
2011,10,31,07,40,2.20
2011,10,31,07,41,2.10
2011,10,31,07,42,2.20
2011,10,31,07,43,2.10
2011,10,31,07,44,2.10
2011,10,31,07,45,2.10
2011,10,31,07,46,2.10
2011,10,31,07,47,2.10
2011,10,31,07,48,2.10
2011,10,31,07,49,2.10
2011,10,31,07,50,2.10
2011,10,31,07,51,2.10
2011,10,31,07,52,2.10
2011,10,31,07,53,2.10
2011,10,31,07,54,2.10
2011,10,31,07,55,2.20
2011,10,31,07,56,2.20
2011,10,31,07,57,2.20
2011,10,31,07,58,2.20
2011,10,31,07,59,2.20
2011,10,31,08,00,2.10
2011,10,31,08,01,2.10
2011,10,31,08,02,2.10
2011,10,31,08,03,2.00
2011,10,31,08,04,2.00
2011,10,31,08,05,2.00
2011,10,31,08,06,2.00
2011,10,31,08,07,1.90
2011,10,31,08,08,1.90
2011,10,31,08,09,1.90
2011,10,31,08,10,1.90
2011,10,31,08,11,2.00
2011,10,31,08,12,2.00
2011,10,31,08,13,2.00
2011,10,31,08,14,2.00
2011,10,31,08,15,2.00
2011,10,31,08,16,2.00
2011,10,31,08,17,2.00
2011,10,31,08,18,2.00
2011,10,31,08,19,2.00
2011,10,31,08,20,2.00
2011,10,31,08,21,2.00
2011,10,31,08,22,2.00
2011,10,31,08,23,1.90
2011,10,31,08,24,1.90
2011,10,31,08,25,1.90
2011,10,31,08,26,1.90
2011,10,31,08,27,1.90
2011,10,31,08,28,2.00
2011,10,31,08,29,2.00
2011,10,31,08,30,2.00
2011,10,31,08,31,2.10
2011,10,31,08,32,2.20
2011,10,31,08,33,2.20
2011,10,31,08,34,2.30
2011,10,31,08,35,2.30
2011,10,31,08,36,2.40
2011,10,31,08,37,2.40
2011,10,31,08,38,2.50
2011,10,31,08,39,2.60
2011,10,31,08,40,2.60
2011,10,31,08,41,2.70
2011,10,31,08,42,2.70
2011,10,31,08,43,2.70
2011,10,31,08,44,2.80
2011,10,31,08,45,2.80
2011,10,31,08,46,2.90
2011,10,31,08,47,3.00
2011,10,31,08,48,3.00
2011,10,31,08,49,3.10
2011,10,31,08,50,3.20
2011,10,31,08,51,3.30
2011,10,31,08,52,3.30
2011,10,31,08,53,3.40
2011,10,31,08,54,3.40
2011,10,31,08,55,3.40
2011,10,31,08,56,3.40
2011,10,31,08,57,3.30
2011,10,31,08,58,3.30
2011,10,31,08,59,3.30
2011,10,31,09,00,3.40
2011,10,31,09,01,3.40
2011,10,31,09,02,3.50
2011,10,31,09,03,3.50
2011,10,31,09,04,3.60
2011,10,31,09,05,3.60
2011,10,31,09,06,3.70
2011,10,31,09,07,3.80
2011,10,31,09,08,3.90
2011,10,31,09,09,4.00
2011,10,31,09,10,4.10
2011,10,31,09,11,4.20
2011,10,31,09,12,4.30
2011,10,31,09,13,4.40
2011,10,31,09,14,4.50
2011,10,31,09,15,4.50
2011,10,31,09,16,4.60
2011,10,31,09,17,4.60
2011,10,31,09,18,4.70
2011,10,31,09,19,4.70
2011,10,31,09,20,4.80
2011,10,31,09,21,4.90
2011,10,31,09,22,5.00
2011,10,31,09,23,5.10
2011,10,31,09,24,5.10
2011,10,31,09,25,5.20
2011,10,31,09,26,5.30
2011,10,31,09,27,5.40
2011,10,31,09,28,5.50
2011,10,31,09,29,5.60
2011,10,31,09,30,5.70
2011,10,31,09,31,5.80
2011,10,31,09,32,5.80
2011,10,31,09,33,5.90
2011,10,31,09,34,6.00
2011,10,31,09,35,6.00
2011,10,31,09,36,6.10
2011,10,31,09,37,6.20
2011,10,31,09,38,6.20
2011,10,31,09,39,6.30
2011,10,31,09,40,6.30
2011,10,31,09,41,6.40
2011,10,31,09,42,6.40
2011,10,31,09,43,6.40
2011,10,31,09,44,6.50
2011,10,31,09,45,6.60
2011,10,31,09,46,6.60
2011,10,31,09,47,6.70
2011,10,31,09,48,6.70
2011,10,31,09,49,6.70
2011,10,31,09,50,6.80
2011,10,31,09,51,6.80
2011,10,31,09,52,6.80
2011,10,31,09,53,6.90
2011,10,31,09,54,6.90
2011,10,31,09,55,7.00
2011,10,31,09,56,7.00
2011,10,31,09,57,7.10
2011,10,31,09,58,7.10
2011,10,31,09,59,7.20
2011,10,31,10,00,7.20
2011,10,31,10,01,7.20
2011,10,31,10,02,7.30
2011,10,31,10,03,7.30
2011,10,31,10,04,7.40
2011,10,31,10,05,7.40
2011,10,31,10,06,7.50
2011,10,31,10,07,7.50
2011,10,31,10,08,7.60
2011,10,31,10,09,7.70
2011,10,31,10,10,7.80
2011,10,31,10,11,7.80
2011,10,31,10,12,7.90
2011,10,31,10,13,7.90
2011,10,31,10,14,7.90
2011,10,31,10,15,8.00
2011,10,31,10,16,8.10
2011,10,31,10,17,8.10
2011,10,31,10,18,8.20
2011,10,31,10,19,8.20
2011,10,31,10,20,8.30
2011,10,31,10,21,8.30
2011,10,31,10,22,8.30
2011,10,31,10,23,8.30
2011,10,31,10,24,8.40
2011,10,31,10,25,8.40
2011,10,31,10,26,8.40
2011,10,31,10,27,8.40
2011,10,31,10,28,8.40
2011,10,31,10,29,8.50
2011,10,31,10,30,8.50
2011,10,31,10,31,8.60
2011,10,31,10,32,8.60
2011,10,31,10,33,8.60
2011,10,31,10,34,8.70
2011,10,31,10,35,8.70
2011,10,31,10,36,8.70
2011,10,31,10,37,8.70
2011,10,31,10,38,8.70
2011,10,31,10,39,8.70
2011,10,31,10,40,8.70
2011,10,31,10,41,8.70
2011,10,31,10,42,8.70
2011,10,31,10,43,8.70
2011,10,31,10,44,8.70
2011,10,31,10,45,8.70
2011,10,31,10,46,8.70
2011,10,31,10,47,8.70
2011,10,31,10,48,8.70
2011,10,31,10,49,8.70
2011,10,31,10,50,8.70
2011,10,31,10,51,8.80
2011,10,31,10,52,8.80
2011,10,31,10,53,8.80
2011,10,31,10,54,8.80
2011,10,31,10,55,8.90
2011,10,31,10,56,8.90
2011,10,31,10,57,8.90
2011,10,31,10,58,9.00
2011,10,31,10,59,9.00
2011,10,31,11,00,9.10
2011,10,31,11,01,9.10
2011,10,31,11,02,9.10
2011,10,31,11,03,9.10
2011,10,31,11,04,9.10
2011,10,31,11,05,9.10
2011,10,31,11,06,9.10
2011,10,31,11,07,9.10
2011,10,31,11,08,9.10
2011,10,31,11,09,9.10
2011,10,31,11,10,9.20
2011,10,31,11,11,9.20
2011,10,31,11,12,9.20
2011,10,31,11,13,9.10
2011,10,31,11,14,9.10
2011,10,31,11,15,9.10
2011,10,31,11,16,9.10
2011,10,31,11,17,9.10
2011,10,31,11,18,9.10
2011,10,31,11,19,9.10
2011,10,31,11,20,9.00
2011,10,31,11,21,9.00
2011,10,31,11,22,9.00
2011,10,31,11,23,9.00
2011,10,31,11,24,9.00
2011,10,31,11,25,9.00
2011,10,31,11,26,9.00
2011,10,31,11,27,9.00
2011,10,31,11,28,9.00
2011,10,31,11,29,9.00
2011,10,31,11,30,9.10
2011,10,31,11,31,9.10
2011,10,31,11,32,9.10
2011,10,31,11,33,9.10
2011,10,31,11,34,9.10
2011,10,31,11,35,9.10
2011,10,31,11,36,9.10
2011,10,31,11,37,9.10
2011,10,31,11,38,9.10
2011,10,31,11,39,9.10
2011,10,31,11,40,9.10
2011,10,31,11,41,9.10
2011,10,31,11,42,9.10
2011,10,31,11,43,9.10
2011,10,31,11,44,9.20
2011,10,31,11,45,9.20
2011,10,31,11,46,9.20
2011,10,31,11,47,9.20
2011,10,31,11,48,9.20
2011,10,31,11,49,9.20
2011,10,31,11,50,9.20
2011,10,31,11,51,9.30
2011,10,31,11,52,9.30
2011,10,31,11,53,9.30
2011,10,31,11,54,9.30
2011,10,31,11,55,9.40
2011,10,31,11,56,9.40
2011,10,31,11,57,9.40
2011,10,31,11,58,9.40
2011,10,31,11,59,9.40
2011,10,31,12,00,9.40
2011,10,31,12,01,9.40
2011,10,31,12,02,9.40
2011,10,31,12,03,9.30
2011,10,31,12,04,9.30
2011,10,31,12,05,9.30
2011,10,31,12,06,9.30
2011,10,31,12,07,9.30
2011,10,31,12,08,9.30
2011,10,31,12,09,9.30
2011,10,31,12,10,9.30
2011,10,31,12,11,9.40
2011,10,31,12,12,9.40
2011,10,31,12,13,9.40
2011,10,31,12,14,9.30
2011,10,31,12,15,9.30
2011,10,31,12,16,9.30
2011,10,31,12,17,9.30
2011,10,31,12,18,9.30
2011,10,31,12,19,9.30
2011,10,31,12,20,9.30
2011,10,31,12,21,9.30
2011,10,31,12,22,9.40
2011,10,31,12,23,9.40
2011,10,31,12,24,9.50
2011,10,31,12,25,9.60
2011,10,31,12,26,9.60
2011,10,31,12,27,9.60
2011,10,31,12,28,9.60
2011,10,31,12,29,9.60
2011,10,31,12,30,9.60
2011,10,31,12,31,9.60
2011,10,31,12,32,9.70
2011,10,31,12,33,9.60
2011,10,31,12,34,9.60
2011,10,31,12,35,9.60
2011,10,31,12,36,9.60
2011,10,31,12,37,9.60
2011,10,31,12,38,9.60
2011,10,31,12,39,9.50
2011,10,31,12,40,9.50
2011,10,31,12,41,9.50
2011,10,31,12,42,9.50
2011,10,31,12,43,9.40
2011,10,31,12,44,9.40
2011,10,31,12,45,9.40
2011,10,31,12,46,9.40
2011,10,31,12,47,9.30
2011,10,31,12,48,9.30
2011,10,31,12,49,9.30
2011,10,31,12,50,9.30
2011,10,31,12,51,9.30
2011,10,31,12,52,9.30
2011,10,31,12,53,9.30
2011,10,31,12,54,9.30
2011,10,31,12,55,9.30
2011,10,31,12,56,9.30
2011,10,31,12,57,9.30
2011,10,31,12,58,9.30
2011,10,31,12,59,9.40
2011,10,31,13,00,9.40
2011,10,31,13,01,9.40
2011,10,31,13,02,9.40
2011,10,31,13,03,9.50
2011,10,31,13,04,9.50
2011,10,31,13,05,9.50
2011,10,31,13,06,9.60
2011,10,31,13,07,9.60
2011,10,31,13,08,9.70
2011,10,31,13,09,9.70
2011,10,31,13,10,9.80
2011,10,31,13,11,9.80
2011,10,31,13,12,9.90
2011,10,31,13,13,9.90
2011,10,31,13,14,10.10
2011,10,31,13,15,10.10
2011,10,31,13,16,10.20
2011,10,31,13,17,10.20
2011,10,31,13,18,10.20
2011,10,31,13,19,10.20
2011,10,31,13,20,10.20
2011,10,31,13,21,10.20
2011,10,31,13,22,10.30
2011,10,31,13,23,10.30
2011,10,31,13,24,10.40
2011,10,31,13,25,10.40
2011,10,31,13,26,10.50
2011,10,31,13,27,10.60
2011,10,31,13,28,10.70
2011,10,31,13,29,10.70
2011,10,31,13,30,10.80
2011,10,31,13,31,10.80
2011,10,31,13,32,10.90
2011,10,31,13,33,10.90
2011,10,31,13,34,11.00
2011,10,31,13,35,11.00
2011,10,31,13,36,10.90
2011,10,31,13,37,10.90
2011,10,31,13,38,10.90
2011,10,31,13,39,10.80
2011,10,31,13,40,10.80
2011,10,31,13,41,10.80
2011,10,31,13,42,10.80
2011,10,31,13,43,10.90
2011,10,31,13,44,10.90
2011,10,31,13,45,10.90
2011,10,31,13,46,10.90
2011,10,31,13,47,10.90
2011,10,31,13,48,10.80
2011,10,31,13,49,10.80
2011,10,31,13,50,10.80
2011,10,31,13,51,10.80
2011,10,31,13,52,10.70
2011,10,31,13,53,10.70
2011,10,31,13,54,10.70
2011,10,31,13,55,10.60
2011,10,31,13,56,10.60
2011,10,31,13,57,10.50
2011,10,31,13,58,10.50
2011,10,31,13,59,10.60
2011,10,31,14,00,10.60
2011,10,31,14,01,10.60
2011,10,31,14,02,10.60
2011,10,31,14,03,10.60
2011,10,31,14,04,10.50
2011,10,31,14,05,10.50
2011,10,31,14,06,10.40
2011,10,31,14,07,10.30
2011,10,31,14,08,10.30
2011,10,31,14,09,10.30
2011,10,31,14,10,10.30
2011,10,31,14,11,10.30
2011,10,31,14,12,10.30
2011,10,31,14,13,10.30
2011,10,31,14,14,10.30
2011,10,31,14,15,10.30
2011,10,31,14,16,10.30
2011,10,31,14,17,10.30
2011,10,31,14,18,10.30
2011,10,31,14,19,10.30
2011,10,31,14,20,10.40
2011,10,31,14,21,10.40
2011,10,31,14,22,10.30
2011,10,31,14,23,10.30
2011,10,31,14,24,10.30
2011,10,31,14,25,10.30
2011,10,31,14,26,10.20
2011,10,31,14,27,10.20
2011,10,31,14,28,10.20
2011,10,31,14,29,10.10
2011,10,31,14,30,10.20
2011,10,31,14,31,10.20
2011,10,31,14,32,10.20
2011,10,31,14,33,10.30
2011,10,31,14,34,10.30
2011,10,31,14,35,10.40
2011,10,31,14,36,10.50
2011,10,31,14,37,10.60
2011,10,31,14,38,10.60
2011,10,31,14,39,10.60
2011,10,31,14,40,10.60
2011,10,31,14,41,10.60
2011,10,31,14,42,10.60
2011,10,31,14,43,10.70
2011,10,31,14,44,10.70
2011,10,31,14,45,10.70
2011,10,31,14,46,10.70
2011,10,31,14,47,10.70
2011,10,31,14,48,10.60
2011,10,31,14,49,10.60
2011,10,31,14,50,10.50
2011,10,31,14,51,10.50
2011,10,31,14,52,10.40
2011,10,31,14,53,10.40
2011,10,31,14,54,10.40
2011,10,31,14,55,10.40
2011,10,31,14,56,10.40
2011,10,31,14,57,10.40
2011,10,31,14,58,10.40
2011,10,31,14,59,10.40
2011,10,31,15,00,10.50
2011,10,31,15,01,10.60
2011,10,31,15,02,10.70
2011,10,31,15,03,10.70
2011,10,31,15,04,10.70
2011,10,31,15,05,10.70
2011,10,31,15,06,10.70
2011,10,31,15,07,10.80
2011,10,31,15,08,10.80
2011,10,31,15,09,10.80
2011,10,31,15,10,10.80
2011,10,31,15,11,10.80
2011,10,31,15,12,10.80
2011,10,31,15,13,10.80
2011,10,31,15,14,10.80
2011,10,31,15,15,10.70
2011,10,31,15,16,10.70
2011,10,31,15,17,10.70
2011,10,31,15,18,10.70
2011,10,31,15,19,10.70
2011,10,31,15,20,10.70
2011,10,31,15,21,10.70
2011,10,31,15,22,10.70
2011,10,31,15,23,10.70
2011,10,31,15,24,10.80
2011,10,31,15,25,10.80
2011,10,31,15,26,10.80
2011,10,31,15,27,10.80
2011,10,31,15,28,10.80
2011,10,31,15,29,10.70
2011,10,31,15,30,10.70
2011,10,31,15,31,10.70
2011,10,31,15,32,10.60
2011,10,31,15,33,10.50
2011,10,31,15,34,10.40
2011,10,31,15,35,10.30
2011,10,31,15,36,10.20
2011,10,31,15,37,10.10
2011,10,31,15,38,10.00
2011,10,31,15,39,10.00
2011,10,31,15,40,9.90
2011,10,31,15,41,9.80
2011,10,31,15,42,9.70
2011,10,31,15,43,9.60
2011,10,31,15,44,9.60
2011,10,31,15,45,9.60
2011,10,31,15,46,9.60
2011,10,31,15,47,9.60
2011,10,31,15,48,9.60
2011,10,31,15,49,9.50
2011,10,31,15,50,9.60
2011,10,31,15,51,9.50
2011,10,31,15,52,9.50
2011,10,31,15,53,9.50
2011,10,31,15,54,9.40
2011,10,31,15,55,9.40
2011,10,31,15,56,9.40
2011,10,31,15,57,9.40
2011,10,31,15,58,9.50
2011,10,31,15,59,9.50
2011,10,31,16,00,9.50
2011,10,31,16,01,9.60
2011,10,31,16,02,9.60
2011,10,31,16,03,9.60
2011,10,31,16,04,9.60
2011,10,31,16,05,9.60
2011,10,31,16,06,9.70
2011,10,31,16,07,9.70
2011,10,31,16,08,9.70
2011,10,31,16,09,9.70
2011,10,31,16,10,9.80
2011,10,31,16,11,9.80
2011,10,31,16,12,9.80
2011,10,31,16,13,9.80
2011,10,31,16,14,9.80
2011,10,31,16,15,9.80
2011,10,31,16,16,9.80
2011,10,31,16,17,9.80
2011,10,31,16,18,9.80
2011,10,31,16,19,9.80
2011,10,31,16,20,9.80
2011,10,31,16,21,9.80
2011,10,31,16,22,9.80
2011,10,31,16,23,9.90
2011,10,31,16,24,9.90
2011,10,31,16,25,9.90
2011,10,31,16,26,9.90
2011,10,31,16,27,9.90
2011,10,31,16,28,9.90
2011,10,31,16,29,9.90
2011,10,31,16,30,9.90
2011,10,31,16,31,9.90
2011,10,31,16,32,9.90
2011,10,31,16,33,9.90
2011,10,31,16,34,9.90
2011,10,31,16,35,10.00
2011,10,31,16,36,10.00
2011,10,31,16,37,10.00
2011,10,31,16,38,9.90
2011,10,31,16,39,9.90
2011,10,31,16,40,9.90
2011,10,31,16,41,9.90
2011,10,31,16,42,9.90
2011,10,31,16,43,9.90
2011,10,31,16,44,9.80
2011,10,31,16,45,9.80
2011,10,31,16,46,9.80
2011,10,31,16,47,9.80
2011,10,31,16,48,9.80
2011,10,31,16,49,9.80
2011,10,31,16,50,9.80
2011,10,31,16,51,9.90
2011,10,31,16,52,9.90
2011,10,31,16,53,9.90
2011,10,31,16,54,9.90
2011,10,31,16,55,9.90
2011,10,31,16,56,9.90
2011,10,31,16,57,9.90
2011,10,31,16,58,9.90
2011,10,31,16,59,9.90
2011,10,31,17,00,9.90
2011,10,31,17,01,9.80
2011,10,31,17,02,9.80
2011,10,31,17,03,9.80
2011,10,31,17,04,9.70
2011,10,31,17,05,9.70
2011,10,31,17,06,9.70
2011,10,31,17,07,9.70
2011,10,31,17,08,9.60
2011,10,31,17,09,9.60
2011,10,31,17,10,9.60
2011,10,31,17,11,9.60
2011,10,31,17,12,9.60
2011,10,31,17,13,9.50
2011,10,31,17,14,9.50
2011,10,31,17,15,9.40
2011,10,31,17,16,9.40
2011,10,31,17,17,9.30
2011,10,31,17,18,9.30
2011,10,31,17,19,9.20
2011,10,31,17,20,9.20
2011,10,31,17,21,9.20
2011,10,31,17,22,9.10
2011,10,31,17,23,9.10
2011,10,31,17,24,9.00
2011,10,31,17,25,9.00
2011,10,31,17,26,8.90
2011,10,31,17,27,8.90
2011,10,31,17,28,8.80
2011,10,31,17,29,8.80
2011,10,31,17,30,8.70
2011,10,31,17,31,8.70
2011,10,31,17,32,8.60
2011,10,31,17,33,8.50
2011,10,31,17,34,8.50
2011,10,31,17,35,8.40
2011,10,31,17,36,8.40
2011,10,31,17,37,8.40
2011,10,31,17,38,8.30
2011,10,31,17,39,8.30
2011,10,31,17,40,8.30
2011,10,31,17,41,8.30
2011,10,31,17,42,8.30
2011,10,31,17,43,8.30
2011,10,31,17,44,8.30
2011,10,31,17,45,8.20
2011,10,31,17,46,8.20
2011,10,31,17,47,8.10
2011,10,31,17,48,8.10
2011,10,31,17,49,8.10
2011,10,31,17,50,8.00
2011,10,31,17,51,8.00
2011,10,31,17,52,7.90
2011,10,31,17,53,7.90
2011,10,31,17,54,7.90
2011,10,31,17,55,7.80
2011,10,31,17,56,7.80
2011,10,31,17,57,7.70
2011,10,31,17,58,7.70
2011,10,31,17,59,7.60